#timestamp,LO_Frequency,Hit,StdDev 
1649257215.0,286046996.2,N
1649257215.9,286046996.2,N
1649257235.8,286046996.1,N
1649257255.6,286046997.6,N
1649257275.5,286046997.5,N
1649257295.3,286046999.5,N
1649257315.1,286046998.3,N
1649257335.9,286046999.0,N
1649257355.7,286046998.4,N
1649257375.6,286046998.1,N
1649257395.4,286046999.5,N
1649257415.2,286046998.9,N
1649257435.1,286046999.2,N
1649257436.0,286046999.2,N
1649257455.8,286046998.4,N
1649257475.6,286046999.2,N
1649257495.5,286046998.8,N
1649257515.3,286046996.5,N
1649257535.2,286046997.3,N
1649257555.9,286046999.6,N
1649257575.7,286046999.5,N
1649257595.6,286046996.8,N
1649257615.4,286046995.3,N
1649257635.3,286046997.7,N
1649257655.1,286046997.7,N
1649257656.0,286046997.7,N
1649257675.8,286046996.8,N
1649257695.7,286046997.1,N
1649257715.5,286046997.8,N
1649257735.3,286046997.4,N
1649257755.2,286046997.8,N
1649257775.0,286046997.8,N
1649257775.9,286046997.8,N
1649257795.8,286046996.7,Y
1649257815.6,286047000.7,P
1649257835.4,286047000.3,N
1649257855.3,286047000.6,N
1649257875.1,286047000.3,N
1649257895.9,286047001.8,N
1649257915.7,286047001.4,N
1649257935.5,286047001.5,N
1649257955.4,286047002.3,N
1649257975.2,286047002.0,N
1649257995.0,286047002.5,N
1649257995.9,286047002.5,N
1649258015.8,286047002.6,N
1649258035.6,286047002.1,N
1649258055.5,286046999.8,N
1649258075.3,286047000.2,N
1649258095.1,286047000.7,N
1649258115.9,286047000.6,N
1649258135.7,286047001.2,N
1649258155.5,286046998.6,N
1649258175.4,286046998.8,N
1649258195.2,286047001.2,N
1649258215.1,286046998.3,N
1649258216.0,286046998.3,N
1649258235.8,286046998.1,N
1649258255.6,286047000.8,N
1649258275.5,286046998.5,N
1649258295.3,286046998.5,N
1649258315.1,286046999.0,N
1649258335.9,286047000.4,N
1649258355.7,286047000.5,N
1649258375.6,286047000.9,N
1649258395.4,286047000.3,N
1649258415.2,286046999.8,N
1649258435.1,286047002.1,N
1649258436.0,286047002.1,N
1649258455.8,286047002.6,N
1649258475.7,286047002.6,N
1649258495.5,286047000.1,N
1649258515.3,286047000.3,N
1649258535.2,286047002.5,N
1649258555.0,286047000.1,N
1649258555.9,286047000.1,N
1649258575.7,286047002.4,N
1649258595.6,286047002.5,N
1649258615.4,286047001.7,N
1649258635.3,286047011.9,Y
1649258655.1,286047002.5,P
1649258675.8,286047001.5,N
1649258695.7,286047001.3,N
1649258715.5,286047001.5,N
1649258735.4,286047002.5,Y
1649258755.2,286047000.3,P
1649258775.0,286047004.0,P
1649258775.9,286047004.0,N
1649258795.8,286047002.1,N
1649258815.6,286047002.1,N
1649258835.4,286047001.3,N
1649258855.3,286047000.1,N
1649258875.1,286047002.7,N
1649258895.9,286047002.7,N
1649258915.7,286047000.1,N
1649258935.5,286047001.1,N
1649258955.4,286047000.9,N
1649258975.2,286046999.9,N
1649258995.1,286047000.2,N
1649258996.0,286047000.2,N
1649259015.8,286047002.4,N
1649259035.6,286047002.4,N
1649259055.5,286047001.0,N
1649259075.3,286047000.8,N
1649259095.1,286047000.1,N
1649259115.9,286047000.4,N
1649259135.7,286047000.5,N
1649259155.6,286047000.7,N
1649259175.4,286046999.9,N
1649259195.2,286046999.9,N
1649259215.1,286047001.0,N
1649259216.0,286047001.0,N
1649259235.8,286047000.2,N
1649259255.6,286046999.7,N
1649259275.5,286047002.6,N
1649259295.3,286046999.9,N
1649259315.2,286047002.1,N
1649259335.9,286047001.4,N
1649259355.7,286047004.0,Y
1649259375.6,286046999.9,P
1649259395.4,286047000.9,N
1649259415.2,286046999.3,N
1649259435.1,286046998.5,N
1649259436.0,286046998.5,N
1649259455.8,286047001.2,N
1649259475.7,286046998.3,N
1649259495.5,286047001.2,N
1649259515.3,286047000.5,N
1649259535.2,286047002.5,N
1649259555.0,286047001.4,N
1649259555.9,286047001.4,N
1649259575.8,286047002.0,N
1649259595.6,286047003.8,N
1649259615.4,286047001.4,N
1649259635.3,286047001.9,N
1649259655.1,286047002.1,N
1649259675.8,286047003.8,N
1649259695.7,286047003.7,N
1649259715.5,286047001.8,N
1649259735.4,286047001.5,N
1649259755.2,286047003.8,N
1649259775.0,286047002.2,N
1649259775.9,286047002.2,N
1649259795.8,286047004.1,N
1649259815.6,286047004.2,N
1649259835.4,286047002.1,N
1649259855.3,286047000.4,N
1649259875.1,286047000.5,N
1649259895.9,286047001.0,N
1649259915.7,286047000.3,N
1649259935.5,286047000.5,N
1649259955.4,286046999.7,N
1649259975.2,286047001.0,N
1649259995.0,286047000.4,N
1649259995.9,286047000.4,N
1649260015.8,286046999.7,N
1649260065.6,286047001.7,E
1649260075.5,286047004.4,N
1649260095.4,286047000.5,P
1649260115.2,286047000.8,N
1649260135.1,286047001.2,N
1649260136.0,286047001.2,N
1649260155.8,286047000.9,N
1649260175.6,286047002.8,N
1649260195.5,286047002.0,N
1649260215.3,286046999.8,N
1649260235.1,286047000.2,N
1649260255.9,286047002.8,N
1649260275.7,286047002.2,N
1649260295.6,286047001.5,N
1649260315.4,286047001.5,N
1649260335.2,286047002.4,N
1649260355.1,286047004.0,Y
1649260356.0,286047004.0,P
1649260375.8,286047002.6,N
1649260395.7,286047002.3,N
1649260415.5,286046999.9,N
1649260435.3,286046999.9,N
1649260455.2,286047000.6,N
1649260475.9,286046998.3,N
1649260495.7,286047000.8,N
1649260515.6,286047001.2,N
1649260535.4,286047001.0,N
1649260555.2,286046999.9,N
1649260575.1,286046998.8,N
1649260576.0,286046998.8,N
1649260595.8,286046998.7,N
1649260615.7,286046998.5,N
1649260635.5,286046998.4,N
1649260655.3,286046998.5,N
1649260675.2,286046998.5,N
1649260695.0,286047000.1,N
1649260695.9,286047000.1,N
1649260715.8,286046999.9,N
1649260735.6,286046999.9,N
1649260755.4,286047000.0,N
1649260775.3,286047000.9,N
1649260795.1,286047000.5,N
